Torna al catalogo

STARLINK-35573

AttivoComunicazioniVLEO
NORAD 66116·PAYLOAD·🇺🇸 United States

Lanciato Oct 22, 2025 da Vandenberg Space Force Base

Loading…

Prossimi Passaggi (prossime 24 ore)

TLE

AggiornatoSource: CelesTrak SupGP

Epoca: Sep 14, 2026, 14:24 UTC

1 66116C 25237C   26257.60048611 -.00027024  00000+0 -79873-3 0  2577
2 66116  53.1571 239.1370 0001543 102.7470 348.5992 15.34391251    18

Traccia STARLINK-35573 in tempo reale con AllMySat

Download on the App Store